Location: downtown San Diego
(32.7310°N, 117.1990°W)
Time: 21:16:37
(UTC-07:00)

Cosmos 1805 Rocket - Pass Details

Date: 12 July 2018
Orbit: 607 x 629 km, 82.5° (Epoch: 20 July)

Event Time Altitude Azimuth Distance (km) Brightness Sun altitude
Exits shadow 22:37:55 56° 273° (W) 745 4.0 -26.4°
Maximum altitude 22:37:59 56° 278° (W) 744 4.0 -26.4°
Drops below altitude 10° 22:42:22 10° 357° (N) 2,010 6.9 -27.0°
Sets 22:44:39 0° 2° (N) 2,922 7.8 -27.2°
